sat.trackr.live / text

‹ back to catalog

STARLINK-5113

NORAD 53988 · 2022-125AA

PAYLOAD ACTIVE UNKNOWN

§ Identity

Operator
Country
US
Launch date
2022-10-05
Launch site
AFWTR
Launch vehicle
Mass (kg)
RCS (m²)

Purposes: comms

External: N2YO · Heavens-Above · Gunter

§ Orbital elements

Epoch: 2026-05-25T05:09:43.191936Z

Period
95.44 min
Inclination
53.2142°
Eccentricity
0.0001003
Mean motion
15.08837235 rev/d
Perigee alt
539.1 km
Apogee alt
540.4 km
Semi-major
6,917.9 km
B*
5.4031e-5
RAAN
230.7003°
Arg perigee
93.6459°
Mean anomaly
266.4648°
Rev number
20,100

§ Raw data

STARLINK-51131 53988U 22125AA  26145.21508324  .00000572  00000+0  54031-4 0  99982 53988  53.2142 230.7003 0001003  93.6459 266.4648 15.08837235201008

JSON: /api/v1/satellites/53988 · /tle

For live sub-satellite position, see the globe view (requires WebGL).

§ Visibility from observer

Set your observer location to see the next 7 days of passes ≥ 10°. The values pass through the URL so the page stays shareable.

No JS? Fill the form by hand. The geolocation button needs JavaScript.